Weather in Steklyannyy

Russia / Saint-Petersburg and Leningrad Oblast     60°23′06″N   30°14′20″E
temp.,
°C
wind,
m/s
gust,
m/s
humid.,
%
clouds,
%
prec.,
mm/h
press.,
hPa
HPBL,
m
18 may, tue
tue1800:00+14se31291100 1.9 1007397
03:00+14ese2396100 2.8 100591
06:00+15s1197100 0.0 100559
09:00+16se1293100 0.9 1005280
12:00+19sse2581100 0.9 1005746
15:00+20e2380100 1.0 1005629
18:00+18ne239287 3.6 1003120
21:00+15ese1399100 5.9 1004108
19 may, wed
wed1900:00+14ese2499100 0.6 1005113
03:00+13ese389996 1.1 1003184
06:00+13ese21193100 0.0 1002267
09:00+19se4147816 0.0 1002698
12:00+24se616520 0.0 10002091
15:00+23sse6116412 1.0 10001667
18:00+21s612685 0.3 10001313
21:00+17s5128378 0.5 1002877
20 may, thu
thu2000:00+15s41194100 0.3 1003598
03:00+13s2798100 0.3 1004332
06:00+13sw2391100 0.0 1004379
09:00+14wsw238390 0.0 1005587
12:00+17wnw2170100 0.0 1005785
15:00+15nne3579100 0.0 1004389
18:00+13n3988100 0.8 1001640
21:00+11nw4996100 5.7 1000652
21 may, fri
fri2100:00+10wnw3796100 0.5 999588
03:00+9wnw5896100 0.6 999700
06:00+9wnw61291100 0.3 10001075
09:00+9wsw499094 0.3 1002653
12:00+13wsw610600 0.1 10041119
15:00+15wsw712484 0.1 10051834
18:00+13wsw611607 0.0 10061477
21:00+9wsw412745 0.0 1008884
22 may, sat
sat2200:00+6sw4138711 0.0 1009617
03:00+6sw412875 0.0 1009572
06:00+6ssw412836 0.0 1010522
09:00+11ssw5970100 0.0 1010696
12:00+14ssw6960100 0.1 10101716
15:00+13s51172100 0.6 10101078
18:00+12s41283100 1.1 10091042
21:00+11ssw41290100 1.8 1009800